Flag for Germany Weather past 2 weeks in Wesel, North Rhine-Westphalia, Germany

Now
61 °F

Scattered clouds.


Feels Like: 61 °F
Forecast: 53 / 61 °F
Wind: 18 mph from West

Location: Niederrhein

Current Time: Sep 4, 2015 at 7:09:40 PM

Latest Report: Sep 4, 2015 at 6:20 PM


Visibility: N/A

Pressure: 29.92 "Hg

Humidity: 68%

Dew point: 50 °F

Location of WeselLocation

Historic Weather in Wesel — Graph

°F

Wesel temperature yesterday

Maximum temperature yesterday: 63 °F (at 11:50 AM)
Minimum temperature yesterday: 50 °F (at 5:20 AM)
Average temperature yesterday: 56 °F

Past Weeks' High & Low Weather Summary

 TemperatureHumidityPressure
High88 °F (Aug 31, 3:50 PM)100% (Aug 21, 6:20 AM)30.24 "Hg (Aug 21, 6:20 AM)
Low48 °F (Sep 2, 6:50 AM)30% (Aug 23, 2:20 PM)29.50 "Hg (Aug 24, 3:20 PM)
Average66 °F74%29.94 "Hg
* Reported Aug 20 5:20 PM — Sep 4 5:50 PM, Wesel, Weather by CustomWeather, © 2015

Note: Actual official high and low records may vary slightly from our data, if they occured in-between our weather recording intervals... More about our weather records

Advertising

Wesel weather history for previous 24 hours

 ConditionsComfort  
Time TempWeatherWind HumidityBarometerVisibility
5:50 PM
Fri, Sep 4
61 °FPassing clouds.15 mph72%29.92 "HgN/A
5:20 PM61 °FScattered clouds.18 mph68%29.92 "HgN/A
4:50 PM61 °FScattered showers. Scattered clouds.16 mph68%29.92 "HgN/A
4:20 PM61 °FSprinkles. Partly sunny.17 mph63%29.92 "HgN/A
3:50 PM63 °FScattered clouds.15 mph68%29.92 "HgN/A
3:20 PM63 °FScattered clouds.14 mph68%29.95 "HgN/A
2:50 PM63 °FScattered clouds.18 mph64%29.95 "HgN/A
2:20 PM63 °FScattered clouds.14 mph73%29.95 "HgN/A
1:50 PM59 °FPassing clouds.13 mph77%29.95 "HgN/A
1:20 PM59 °FScattered clouds.16 mph72%29.95 "HgN/A
12:50 PM59 °FScattered clouds.15 mph77%29.95 "HgN/A
12:20 PM59 °FPartly sunny.16 mph77%29.95 "HgN/A
11:50 AM59 °FScattered clouds.16 mph77%29.95 "HgN/A
11:20 AM59 °FPassing clouds.14 mph72%29.95 "HgN/A
10:50 AM57 °FScattered clouds.14 mph82%29.95 "HgN/A
10:20 AM57 °FPartly sunny.12 mph82%29.95 "HgN/A
9:50 AM57 °FSunny.12 mph82%29.95 "Hg10 mi
9:20 AM55 °FSunny.13 mph94%29.95 "Hg10 mi
8:50 AM55 °FPassing clouds.9 mph94%29.95 "HgN/A
8:20 AM52 °FClear.9 mph100%29.95 "Hg10 mi
7:50 AM52 °FClear.8 mph100%29.92 "Hg6 mi
7:20 AM52 °FClear.7 mph100%29.92 "Hg5 mi
6:50 AM50 °FPassing clouds.7 mph100%29.92 "HgN/A
6:20 AM50 °FClear.7 mph100%29.92 "Hg10 mi
5:50 AM52 °FClear.8 mph100%29.95 "Hg10 mi
5:20 AM52 °FClear.8 mph100%29.95 "Hg10 mi
4:50 AM52 °FPassing clouds.7 mph100%29.95 "HgN/A
11:50 PM
Thu, Sep 3
54 °FClear.3 mph100%29.95 "Hg10 mi
11:20 PM54 °FClear.6 mph100%29.95 "Hg10 mi
10:50 PM54 °FClear.7 mph100%29.95 "Hg10 mi
10:20 PM55 °FPassing clouds.6 mph94%29.95 "HgN/A
9:50 PM55 °FSunny.7 mph94%29.95 "Hg10 mi
9:20 PM55 °FSunny.7 mph100%29.95 "Hg10 mi
8:50 PM55 °FScattered clouds.6 mph100%29.95 "HgN/A
8:20 PM55 °FSunny.5 mph94%29.95 "Hg10 mi
7:50 PM55 °FSunny.5 mph100%29.95 "Hg10 mi
7:20 PM55 °FSunny.3 mph94%29.95 "Hg10 mi
Weather by CustomWeather, © 2015

See weather overviewHow to use our weather pages